GFSCGP_925_spd_240.txt.gz
Wind_Speed
17 13 16 19 18 10 6 9 7 5 2 7 8 7 9 13 15 17 17 18 18 17 19 20 21 19 19 19 18 17 16 15 13 11 9 10 12 10 8 7 6 6 7 8
15 20 20 17 16 15 10 10 9 5 5 6 3 8 10 14 17 18 19 19 19 18 18 21 22 22 21 21 19 19 18 17 16 12 10 7 11 12 8 7 6 6 8 8
23 23 21 18 18 15 17 14 9 7 5 10 7 14 10 12 15 16 17 18 18 19 20 19 22 24 24 24 22 20 20 18 17 14 11 10 9 10 10 8 8 9 8 7
24 23 23 20 20 19 19 16 9 8 8 6 2 1 13 13 16 19 20 19 20 21 20 19 23 24 25 25 24 22 20 20 19 17 15 12 13 14 12 11 8 8 7 6
24 23 20 22 22 20 18 9 12 12 12 11 12 7 5 14 14 19 22 23 22 22 22 22 26 27 26 25 26 25 22 21 20 19 16 15 13 13 12 11 9 8 8 6
24 18 18 24 22 21 19 5 9 11 13 13 15 7 7 11 14 18 20 23 22 22 22 23 28 28 28 27 26 26 25 24 22 20 20 18 15 13 14 12 10 10 9 9
24 22 18 17 22 21 23 17 10 12 12 13 6 7 13 1 5 9 21 24 24 22 22 22 23 28 28 29 28 26 25 25 24 22 22 22 19 16 15 15 13 10 9 10
19 25 23 18 26 22 23 23 15 18 13 14 13 7 6 3 2 8 13 20 23 23 22 23 25 30 31 30 29 28 27 26 26 26 24 23 21 19 17 16 15 14 10 9
21 24 25 17 20 23 23 24 23 22 17 13 12 14 9 10 5 8 12 15 21 24 24 24 26 31 32 31 31 31 30 28 28 28 26 25 23 21 19 15 17 15 12 11
9 14 16 22 16 19 21 18 20 16 23 19 17 16 8 12 9 6 8 13 18 23 24 23 21 29 32 33 33 32 32 32 30 28 28 28 26 24 21 17 16 17 14 13
12 12 16 14 21 23 15 15 18 18 19 16 16 16 12 14 2 4 4 8 15 19 22 22 20 29 31 30 31 31 32 32 32 30 29 28 29 26 22 20 18 18 17 15
15 10 14 21 20 21 25 24 22 16 23 18 15 14 8 8 1 5 5 3 8 18 21 21 21 26 26 28 29 30 31 31 31 31 29 27 27 29 27 24 22 19 16 17
0 12 13 18 11 12 19 23 25 23 17 20 17 17 12 9 5 6 6 5 3 10 15 18 18 19 26 28 28 29 29 31 31 30 31 29 27 28 29 27 25 21 18 17
4 14 16 15 18 16 20 23 24 24 18 19 20 22 15 9 1 6 7 5 3 7 12 15 16 14 21 24 25 26 27 28 29 30 30 30 30 29 28 27 26 25 22 20
5 11 16 21 14 13 20 20 25 25 25 22 18 22 19 14 3 7 6 6 6 5 7 11 12 11 15 16 18 20 21 23 25 28 29 30 29 28 26 25 26 26 25 24
8 7 7 15 18 15 16 21 19 25 25 22 22 16 2 9 6 5 5 5 7 7 8 10 9 4 10 13 14 16 18 19 20 22 26 25 25 26 27 26 25 26 27 26
9 6 7 14 14 17 20 19 18 15 16 19 22 20 7 7 9 7 5 9 8 7 8 8 6 7 7 3 12 15 15 16 19 19 20 21 23 25 25 25 26 27 27 26
10 8 7 9 7 16 5 3 6 10 5 4 2 8 10 11 11 10 9 7 8 8 8 8 8 9 8 6 3 9 11 14 17 17 18 17 18 21 20 20 23 21 21 23
14 9 6 9 12 7 8 7 7 14 10 2 2 8 11 11 12 9 9 9 8 8 9 10 10 10 10 11 6 3 5 10 11 11 9 11 15 17 17 19 17 15 16 17
12 11 7 10 12 13 12 8 1 4 8 7 6 10 11 8 5 3 5 7 8 9 9 9 10 11 14 13 12 13 15 17 10 2 8 3 11 6 14 16 12 16 18 19
9 7 13 12 11 6 6 2 4 7 4 6 6 7 8 5 3 11 7 6 8 7 7 7 11 12 12 11 13 17 17 14 6 4 2 9 10 9 13 11 12 14 17 19
8 9 8 13 12 8 10 4 4 4 4 7 7 7 11 13 12 10 8 6 6 7 7 8 9 11 11 10 11 13 14 11 9 5 2 1 2 1 10 7 8 10 12 15
4 6 5 4 4 5 7 8 7 6 5 11 11 10 11 11 11 10 8 7 6 7 7 6 8 9 9 10 8 11 10 10 10 9 7 7 5 3 6 2 1 4 5 7
2 4 1 6 5 6 7 8 9 10 9 12 14 14 12 11 9 9 8 7 6 7 9 9 9 10 9 8 11 11 10 8 8 9 9 6 3 3 7 5 4 4 4 5
2 7 4 4 6 6 7 7 8 7 7 11 12 11 11 10 10 8 6 5 4 3 3 4 4 6 7 8 9 9 11 11 7 8 9 10 9 11 9 9 8 8 6 8
0 3 3 2 9 4 6 4 6 7 8 8 8 9 9 8 7 5 5 5 2 2 2 4 3 2 2 2 4 6 9 9 10 10 10 11 13 13 11 11 8 8 8 8

GFSCGP_925_spd_243.txt.gz
Wind_Speed
18 16 19 21 21 21 9 14 10 7 6 9 12 8 14 15 16 17 16 19 18 18 18 21 20 20 21 21 20 19 17 17 16 15 13 12 12 11 10 12 12 10 10 9
21 23 23 21 20 17 6 15 9 7 11 10 9 11 14 18 15 18 17 21 20 19 19 21 22 21 23 23 22 20 19 18 16 15 11 9 11 13 15 12 11 10 10 10
26 24 24 22 22 19 20 19 12 7 7 13 12 13 14 17 17 24 25 20 20 21 21 20 23 24 24 25 23 22 20 20 18 14 11 7 3 11 10 10 10 10 11 10
26 27 24 24 23 21 21 18 16 5 9 11 12 7 9 16 18 20 23 20 20 21 21 21 24 25 25 26 24 22 21 21 19 16 14 13 14 12 15 13 16 13 12 11
28 28 28 25 26 22 19 16 20 16 13 16 19 7 9 17 17 20 20 25 23 24 23 24 25 28 27 26 26 24 23 22 21 19 13 17 18 14 13 12 15 11 12 10
29 24 26 27 23 23 21 21 13 15 15 15 18 13 11 17 17 19 21 21 23 23 24 23 29 29 28 27 26 25 24 22 21 20 15 18 17 11 15 11 11 14 14 12
26 32 25 27 23 20 26 20 14 13 13 14 19 14 11 7 5 13 21 22 23 24 24 23 24 29 31 31 29 27 26 24 24 22 21 19 16 14 12 13 13 13 14 14
22 22 32 23 23 25 26 24 17 20 14 16 18 9 8 5 3 13 16 22 23 22 23 26 25 32 34 32 32 30 29 27 25 24 23 22 19 19 15 15 15 13 11 10
21 27 21 25 24 24 25 25 25 24 18 13 15 18 10 8 9 9 11 20 24 24 22 24 27 33 33 34 34 34 32 30 29 28 25 24 22 21 21 20 19 14 9 9
22 21 28 30 22 25 28 21 21 18 23 21 17 12 13 19 12 11 14 14 18 22 22 22 23 33 35 35 35 33 32 31 30 30 28 26 25 24 20 18 17 19 13 12
15 19 21 24 25 26 21 23 18 21 20 17 16 13 9 5 14 11 8 11 16 19 22 21 21 32 35 35 35 34 33 32 30 30 29 27 28 26 25 20 18 19 16 14
18 18 15 20 19 25 23 24 25 15 24 17 17 12 9 19 14 7 6 6 7 18 21 21 20 27 31 32 33 33 32 31 29 28 27 28 27 27 27 25 22 21 20 18
13 16 15 21 21 16 21 26 25 23 19 23 16 16 11 10 10 8 9 4 4 11 17 20 20 19 26 29 29 31 28 31 29 28 28 28 28 27 29 28 26 24 22 21
8 16 16 17 18 18 25 24 28 25 19 19 20 19 14 15 16 9 10 7 3 3 12 15 16 15 21 24 25 27 29 29 28 29 29 28 27 28 29 28 27 26 25 25
10 16 20 26 26 23 21 25 27 25 25 24 21 20 19 14 13 15 11 9 7 5 3 8 13 12 17 21 22 22 24 26 28 28 30 29 29 27 27 27 27 27 27 27
16 12 16 21 21 26 22 19 26 29 28 25 25 21 16 8 18 15 10 12 15 13 12 13 16 4 9 13 17 18 20 22 23 26 28 26 25 26 25 25 25 27 27 29
14 14 15 15 17 21 24 22 18 20 26 23 21 21 13 18 16 12 10 11 10 9 9 8 10 10 11 10 14 16 20 20 21 21 22 22 22 23 24 24 25 25 26 27
14 12 10 16 17 25 16 20 21 18 16 21 23 6 14 14 14 13 10 10 9 8 6 7 9 10 11 8 9 8 16 16 18 19 19 20 22 24 24 23 23 22 23 24
16 12 12 15 17 13 8 4 10 13 13 7 11 10 10 12 13 12 9 9 8 6 5 5 7 11 6 6 5 6 4 14 17 17 16 19 19 18 15 14 14 16 20 22
16 13 10 16 19 10 16 13 9 5 5 5 3 6 4 4 7 5 7 7 8 8 5 6 11 1 8 8 2 5 10 11 13 7 7 6 6 11 6 13 9 5 21 22
12 10 16 16 14 3 10 17 11 12 3 9 7 6 4 3 8 13 9 7 7 7 6 5 7 3 7 4 11 11 7 7 5 4 4 5 1 7 9 12 6 12 27 27
12 11 11 18 19 15 16 4 9 6 11 9 9 3 10 11 12 11 8 7 6 7 7 7 7 6 10 6 8 13 9 6 6 6 6 5 4 1 3 4 12 6 19 22
6 5 5 4 2 6 8 7 7 11 7 9 9 10 11 10 9 8 7 6 6 6 5 5 6 9 9 8 9 9 4 6 5 8 8 7 5 4 4 4 6 12 22 20
9 9 3 4 8 6 8 6 8 10 6 12 11 11 11 12 8 8 7 6 6 6 7 9 10 11 11 10 9 9 7 4 3 5 7 9 8 8 4 5 4 3 4 1
3 6 4 3 4 6 7 7 7 10 7 10 11 13 12 12 10 8 7 6 7 5 6 7 8 8 8 9 11 12 11 10 6 6 6 6 8 7 10 6 3 5 3 1
3 2 2 3 9 6 5 3 6 7 9 5 10 11 10 9 9 7 8 7 6 5 4 4 4 4 5 5 5 6 7 8 9 7 7 8 4 7 8 9 9 6 5 7

GFSCGP_925_spd_249.txt.gz
Wind_Speed
6 4 8 11 14 16 15 10 6 9 9 7 18 11 19 19 17 16 14 9 13 13 17 27 30 31 34 33 27 24 31 25 23 20 16 10 14 16 26 21 23 22 16 13
8 11 11 16 16 18 16 8 8 7 13 10 15 18 20 20 20 20 17 13 14 15 16 21 26 30 33 34 28 23 30 29 24 23 18 14 13 20 31 22 21 18 14 13
9 9 14 18 17 18 17 8 5 4 6 11 3 8 19 18 17 20 19 15 16 18 19 17 21 28 31 33 30 25 27 30 24 25 19 12 16 18 25 24 23 18 13 15
9 13 19 19 15 15 15 18 14 13 9 8 12 7 19 22 21 24 21 16 18 17 19 18 21 27 32 33 33 29 31 31 27 23 21 21 20 22 26 27 24 23 16 13
9 12 15 20 20 14 14 19 16 10 11 6 11 2 7 23 22 24 22 18 17 17 22 21 23 31 32 34 34 34 31 30 32 25 18 24 20 25 28 27 23 25 22 17
10 13 14 14 19 21 17 18 17 14 5 6 15 8 8 19 23 22 21 21 21 16 22 23 33 34 32 35 34 37 34 32 34 26 18 26 25 26 22 29 27 26 23 20
10 17 17 17 18 22 18 13 8 8 5 5 14 10 16 18 22 25 28 27 25 19 20 23 22 28 33 36 35 36 36 35 33 29 22 21 25 21 19 33 33 28 27 26
7 11 10 17 15 14 17 10 8 10 7 6 12 7 15 15 22 30 28 27 25 24 17 26 23 32 33 38 36 37 37 36 34 31 25 25 24 15 9 27 32 29 32 28
5 11 23 17 18 18 23 15 14 10 13 10 7 8 17 12 13 20 25 24 26 26 22 27 26 36 35 38 37 39 38 37 36 35 30 25 23 18 15 20 29 29 20 28
5 8 14 19 10 19 16 16 11 8 11 14 6 4 5 7 15 14 23 29 28 26 23 21 25 35 38 35 40 39 40 39 39 36 32 31 27 22 20 13 15 16 9 12
8 4 15 17 6 12 15 14 14 9 7 10 6 7 10 10 2 6 21 27 26 26 25 22 22 36 39 39 36 39 41 37 36 38 33 31 31 28 27 22 17 15 13 12
5 5 5 21 20 18 17 13 13 11 9 4 5 16 3 6 9 7 6 28 25 27 26 23 23 36 37 39 37 39 41 39 38 38 36 35 33 32 31 28 24 21 18 13
6 4 6 16 8 7 5 15 18 10 6 16 5 6 3 12 10 5 12 9 9 14 27 23 23 23 34 38 38 37 40 40 40 39 37 35 35 34 34 34 29 25 22 18
6 3 7 10 19 17 21 24 22 21 6 11 14 15 5 12 19 10 22 20 17 14 2 18 23 25 35 38 38 37 37 41 40 39 38 35 36 37 35 33 35 33 26 26
1 7 10 16 19 16 18 22 20 17 16 10 11 6 5 13 9 12 13 24 17 15 17 17 10 9 17 28 31 32 37 36 41 38 37 36 38 36 35 34 33 32 34 27
11 8 11 17 18 18 20 25 18 16 17 9 4 4 17 19 16 19 16 18 20 18 16 15 17 14 17 19 11 24 34 34 41 39 37 36 35 37 37 36 34 31 33 35
7 7 6 11 13 18 11 11 19 20 19 14 7 8 19 12 19 10 7 13 13 12 12 11 15 14 19 2 11 10 21 32 36 37 34 35 36 36 37 36 33 34 33 30
12 6 4 12 12 12 8 14 12 14 16 27 5 16 15 17 12 14 14 11 9 1 2 8 9 14 10 9 19 23 15 14 24 28 29 30 33 34 35 35 35 34 34 34
15 9 7 9 9 13 19 8 7 8 13 21 12 11 17 19 17 11 9 9 6 6 4 10 13 15 18 20 18 16 22 10 12 8 24 26 28 30 31 32 32 33 29 24
14 9 8 9 6 11 3 12 9 7 1 19 19 1 5 5 5 3 2 7 7 9 12 12 15 18 23 21 19 18 12 12 21 21 10 10 13 19 23 27 31 31 29 26
4 6 8 12 9 5 3 10 8 5 6 15 17 14 7 6 6 11 6 6 7 8 11 15 19 18 18 19 20 22 17 10 12 9 11 11 8 2 7 16 25 25 22 19
3 1 4 5 8 11 14 7 1 5 2 9 10 13 13 12 11 10 6 3 5 9 13 14 15 17 18 18 20 20 17 11 6 5 9 3 4 9 9 8 3 8 13 12
3 3 2 1 4 6 7 3 1 5 7 7 12 6 9 7 6 6 4 4 5 10 13 13 15 16 18 16 16 19 16 11 7 2 6 10 7 4 6 8 5 6 9 13
4 1 3 3 5 10 9 10 5 3 9 11 11 9 9 2 6 4 7 8 9 14 15 15 17 18 17 17 18 18 20 19 8 7 8 6 9 6 5 3 1 3 5 9
4 4 2 2 1 11 9 8 10 4 9 15 13 6 5 5 6 4 3 6 9 14 14 16 16 16 14 14 17 17 17 20 23 25 8 13 3 3 7 10 9 6 6 4
3 2 3 4 7 5 13 4 8 6 8 14 16 5 5 7 5 1 3 12 16 15 21 21 18 13 12 13 14 16 16 16 18 18 20 20 19 5 7 8 10 6 2 5

GFSCGP_925_spd_252.txt.gz
Wind_Speed
5 4 4 8 8 12 10 10 10 7 10 10 19 11 16 12 16 17 15 8 14 16 16 30 32 36 37 39 33 28 27 24 25 24 20 20 21 25 23 22 22 24 21 16
6 4 7 6 10 11 10 7 9 9 10 10 8 12 13 17 21 21 20 12 15 16 14 22 28 32 35 37 36 33 28 27 27 23 20 17 19 26 24 23 26 26 21 16
4 7 10 10 9 12 15 4 6 7 4 11 8 6 9 16 14 16 17 15 14 20 19 17 25 31 33 35 38 35 34 29 28 25 21 15 20 23 28 25 26 27 22 17
4 6 6 10 7 4 9 13 10 6 3 5 7 5 6 17 18 19 17 16 15 19 21 18 24 29 34 36 39 35 37 33 29 27 23 19 21 22 27 30 27 27 23 19
9 5 7 8 6 6 10 16 12 10 6 1 2 1 8 14 19 16 22 21 18 21 23 22 24 35 36 37 36 35 38 38 31 29 25 21 25 26 31 30 29 25 22 22
8 4 4 5 12 9 12 12 12 4 4 4 8 7 11 10 27 23 23 22 23 21 25 23 33 37 35 37 36 39 37 41 35 30 27 24 25 30 29 30 29 27 25 24
7 6 7 2 8 12 3 6 5 4 1 6 11 8 11 18 22 26 29 28 26 22 24 23 22 29 34 36 36 38 41 40 38 35 31 23 26 29 31 31 31 30 28 27
3 7 5 6 1 9 12 8 5 5 3 7 6 7 14 12 17 25 29 31 24 24 23 24 24 32 36 38 37 37 38 39 40 38 36 29 26 28 27 26 34 31 33 32
4 4 9 8 6 2 9 3 9 5 6 5 8 8 11 8 9 22 25 23 25 25 22 25 26 34 36 37 39 39 40 40 41 39 39 31 26 22 24 18 35 35 36 31
3 5 5 10 5 6 1 6 4 2 5 12 5 6 6 7 6 19 23 24 24 24 20 23 22 34 37 40 41 40 41 41 42 42 42 36 30 26 22 17 28 33 36 30
1 3 7 5 2 3 10 7 5 4 6 9 11 9 8 9 4 13 15 21 25 24 24 23 23 35 38 39 38 39 38 38 38 43 43 38 34 26 25 24 19 27 25 26
2 3 2 8 18 10 8 3 2 5 9 6 4 9 8 7 10 9 10 15 18 21 25 22 22 33 32 36 36 39 38 37 38 41 42 43 40 35 30 29 26 20 19 20
5 3 5 10 8 7 5 12 8 9 3 8 8 13 2 8 10 13 12 11 11 10 6 12 20 19 31 34 37 38 38 40 37 36 40 40 39 39 37 34 32 28 23 19
2 1 4 4 8 9 9 14 12 5 5 9 9 12 7 7 7 10 19 13 14 13 9 8 7 15 32 34 36 37 37 38 38 37 35 34 38 42 41 40 38 35 31 24
4 4 2 8 11 8 11 14 14 12 13 7 18 15 11 8 13 4 7 21 14 10 11 11 10 12 20 23 29 32 34 36 38 37 37 38 38 39 40 40 39 39 38 34
2 4 5 6 9 7 15 15 10 6 11 6 9 2 4 3 18 10 4 6 14 11 11 12 16 14 14 23 26 23 29 35 38 37 37 39 37 35 38 40 40 38 37 39
3 3 3 8 6 15 13 3 3 6 8 9 6 7 7 3 8 7 7 5 6 8 8 16 15 13 17 16 27 27 31 31 34 36 34 33 33 34 35 38 38 39 37 34
7 4 4 9 3 7 7 2 2 9 13 15 16 10 6 4 8 12 9 7 5 9 9 14 5 14 15 9 11 5 21 32 31 29 29 30 31 33 33 34 37 37 37 37
6 4 4 4 5 12 12 9 2 5 7 18 16 5 7 3 6 12 11 13 10 10 10 9 17 7 16 14 20 24 21 18 21 13 7 9 22 28 31 32 34 35 38 37
2 4 4 1 3 4 4 12 13 11 2 14 18 15 3 8 4 3 7 10 10 11 14 13 15 11 11 19 23 19 26 20 11 14 8 8 15 18 20 24 29 31 33 35
4 4 3 4 4 6 6 20 13 4 4 4 10 8 10 8 2 2 6 8 9 10 12 13 15 11 16 21 24 24 19 10 14 12 11 15 22 14 11 18 6 8 16 7
3 1 3 3 3 7 6 6 4 2 6 11 9 9 7 7 4 6 6 6 7 11 12 11 13 15 22 27 29 23 18 11 5 5 5 6 5 7 15 20 9 11 14 15
3 5 3 5 4 3 3 4 5 4 6 5 12 3 2 1 6 8 5 6 9 12 12 13 14 18 22 26 28 26 19 12 10 10 11 10 5 3 5 10 11 14 14 14
4 3 3 2 1 4 5 2 3 5 8 4 7 6 13 7 7 11 9 8 7 10 11 14 17 16 17 21 24 24 25 22 12 17 16 10 7 6 3 4 7 8 10 14
4 3 3 4 7 6 6 4 2 8 12 8 3 12 12 14 6 6 7 8 12 14 15 17 16 15 16 20 21 20 20 21 23 20 21 21 7 7 14 13 11 8 6 4
3 5 3 4 5 4 5 4 4 4 12 8 2 8 5 11 11 10 9 12 14 14 19 22 22 18 12 16 20 19 21 20 20 23 22 22 20 7 11 14 12 11 11 10